Year,Month,Day,Hour,Minute,Value (Times are PST for temperature in C)
2010,07,24,00,00,15.10
2010,07,24,00,01,15.00
2010,07,24,00,02,15.00
2010,07,24,00,03,15.00
2010,07,24,00,04,15.00
2010,07,24,00,05,15.00
2010,07,24,00,06,14.90
2010,07,24,00,07,14.90
2010,07,24,00,08,14.90
2010,07,24,00,09,14.90
2010,07,24,00,10,14.90
2010,07,24,00,11,14.90
2010,07,24,00,12,14.90
2010,07,24,00,13,14.90
2010,07,24,00,14,14.90
2010,07,24,00,15,14.90
2010,07,24,00,16,14.90
2010,07,24,00,17,14.90
2010,07,24,00,18,14.90
2010,07,24,00,19,14.90
2010,07,24,00,20,14.90
2010,07,24,00,21,14.90
2010,07,24,00,22,14.90
2010,07,24,00,23,14.90
2010,07,24,00,24,14.90
2010,07,24,00,25,14.90
2010,07,24,00,26,14.90
2010,07,24,00,27,14.90
2010,07,24,00,28,14.80
2010,07,24,00,29,14.80
2010,07,24,00,30,14.80
2010,07,24,00,31,14.80
2010,07,24,00,32,14.80
2010,07,24,00,33,14.80
2010,07,24,00,34,14.80
2010,07,24,00,35,14.80
2010,07,24,00,36,14.80
2010,07,24,00,37,14.80
2010,07,24,00,38,14.80
2010,07,24,00,39,14.70
2010,07,24,00,40,14.70
2010,07,24,00,41,14.70
2010,07,24,00,42,14.60
2010,07,24,00,43,14.60
2010,07,24,00,44,14.60
2010,07,24,00,45,14.60
2010,07,24,00,46,14.50
2010,07,24,00,47,14.50
2010,07,24,00,48,14.50
2010,07,24,00,49,14.50
2010,07,24,00,50,14.50
2010,07,24,00,51,14.50
2010,07,24,00,52,14.40
2010,07,24,00,53,14.40
2010,07,24,00,54,14.40
2010,07,24,00,55,14.40
2010,07,24,00,56,14.40
2010,07,24,00,57,14.40
2010,07,24,00,58,14.40
2010,07,24,00,59,14.40
2010,07,24,01,00,14.40
2010,07,24,01,01,14.40
2010,07,24,01,02,14.30
2010,07,24,01,03,14.30
2010,07,24,01,04,14.30
2010,07,24,01,05,14.30
2010,07,24,01,06,14.30
2010,07,24,01,07,14.30
2010,07,24,01,08,14.30
2010,07,24,01,09,14.20
2010,07,24,01,10,14.20
2010,07,24,01,11,14.20
2010,07,24,01,12,14.20
2010,07,24,01,13,14.20
2010,07,24,01,14,14.20
2010,07,24,01,15,14.20
2010,07,24,01,16,14.20
2010,07,24,01,17,14.20
2010,07,24,01,18,14.20
2010,07,24,01,19,14.20
2010,07,24,01,20,14.20
2010,07,24,01,21,14.20
2010,07,24,01,22,14.20
2010,07,24,01,23,14.10
2010,07,24,01,24,14.10
2010,07,24,01,25,14.10
2010,07,24,01,26,14.10
2010,07,24,01,27,14.10
2010,07,24,01,28,14.10
2010,07,24,01,29,14.10
2010,07,24,01,30,14.10
2010,07,24,01,31,14.00
2010,07,24,01,32,14.00
2010,07,24,01,33,14.00
2010,07,24,01,34,14.00
2010,07,24,01,35,14.00
2010,07,24,01,36,14.00
2010,07,24,01,37,14.00
2010,07,24,01,38,13.90
2010,07,24,01,39,13.90
2010,07,24,01,40,13.90
2010,07,24,01,41,13.90
2010,07,24,01,42,13.90
2010,07,24,01,43,13.90
2010,07,24,01,44,13.80
2010,07,24,01,45,13.80
2010,07,24,01,46,13.80
2010,07,24,01,47,13.80
2010,07,24,01,48,13.80
2010,07,24,01,49,13.80
2010,07,24,01,50,13.80
2010,07,24,01,51,13.80
2010,07,24,01,52,13.70
2010,07,24,01,53,13.70
2010,07,24,01,54,13.70
2010,07,24,01,55,13.70
2010,07,24,01,56,13.70
2010,07,24,01,57,13.70
2010,07,24,01,58,13.70
2010,07,24,01,59,13.70
2010,07,24,02,00,13.70
2010,07,24,02,01,13.70
2010,07,24,02,02,13.70
2010,07,24,02,03,13.60
2010,07,24,02,04,13.60
2010,07,24,02,05,13.60
2010,07,24,02,06,13.60
2010,07,24,02,07,13.60
2010,07,24,02,08,13.60
2010,07,24,02,09,13.60
2010,07,24,02,10,13.60
2010,07,24,02,11,13.50
2010,07,24,02,12,13.50
2010,07,24,02,13,13.50
2010,07,24,02,14,13.50
2010,07,24,02,15,13.50
2010,07,24,02,16,13.50
2010,07,24,02,17,13.50
2010,07,24,02,18,13.50
2010,07,24,02,19,13.50
2010,07,24,02,20,13.50
2010,07,24,02,21,13.50
2010,07,24,02,22,13.50
2010,07,24,02,23,13.50
2010,07,24,02,24,13.50
2010,07,24,02,25,13.50
2010,07,24,02,26,13.50
2010,07,24,02,27,13.50
2010,07,24,02,28,13.50
2010,07,24,02,29,13.50
2010,07,24,02,30,13.50
2010,07,24,02,31,13.40
2010,07,24,02,32,13.40
2010,07,24,02,33,13.40
2010,07,24,02,34,13.40
2010,07,24,02,35,13.50
2010,07,24,02,36,13.50
2010,07,24,02,37,13.50
2010,07,24,02,38,13.50
2010,07,24,02,39,13.60
2010,07,24,02,40,13.60
2010,07,24,02,41,13.60
2010,07,24,02,42,13.60
2010,07,24,02,43,13.60
2010,07,24,02,44,13.60
2010,07,24,02,45,13.60
2010,07,24,02,46,13.60
2010,07,24,02,47,13.60
2010,07,24,02,48,13.60
2010,07,24,02,49,13.60
2010,07,24,02,50,13.60
2010,07,24,02,51,13.70
2010,07,24,02,52,13.70
2010,07,24,02,53,13.70
2010,07,24,02,54,13.70
2010,07,24,02,55,13.70
2010,07,24,02,56,13.70
2010,07,24,02,57,13.70
2010,07,24,02,58,13.70
2010,07,24,02,59,13.60
2010,07,24,03,00,13.60
2010,07,24,03,01,13.60
2010,07,24,03,02,13.60
2010,07,24,03,03,13.60
2010,07,24,03,04,13.50
2010,07,24,03,05,13.50
2010,07,24,03,06,13.50
2010,07,24,03,07,13.50
2010,07,24,03,08,13.50
2010,07,24,03,09,13.50
2010,07,24,03,10,13.50
2010,07,24,03,11,13.40
2010,07,24,03,12,13.40
2010,07,24,03,13,13.40
2010,07,24,03,14,13.40
2010,07,24,03,15,13.40
2010,07,24,03,16,13.30
2010,07,24,03,17,13.30
2010,07,24,03,18,13.30
2010,07,24,03,19,13.30
2010,07,24,03,20,13.30
2010,07,24,03,21,13.30
2010,07,24,03,22,13.30
2010,07,24,03,23,13.30
2010,07,24,03,24,13.30
2010,07,24,03,25,13.30
2010,07,24,03,26,13.30
2010,07,24,03,27,13.30
2010,07,24,03,28,13.20
2010,07,24,03,29,13.20
2010,07,24,03,30,13.20
2010,07,24,03,31,13.20
2010,07,24,03,32,13.20
2010,07,24,03,33,13.10
2010,07,24,03,34,13.10
2010,07,24,03,35,13.10
2010,07,24,03,36,13.20
2010,07,24,03,37,13.20
2010,07,24,03,38,13.20
2010,07,24,03,39,13.20
2010,07,24,03,40,13.20
2010,07,24,03,41,13.20
2010,07,24,03,42,13.20
2010,07,24,03,43,13.20
2010,07,24,03,44,13.20
2010,07,24,03,45,13.20
2010,07,24,03,46,13.20
2010,07,24,03,47,13.20
2010,07,24,03,48,13.20
2010,07,24,03,49,13.20
2010,07,24,03,50,13.20
2010,07,24,03,51,13.20
2010,07,24,03,52,13.20
2010,07,24,03,53,13.20
2010,07,24,03,54,13.20
2010,07,24,03,55,13.20
2010,07,24,03,56,13.20
2010,07,24,03,57,13.20
2010,07,24,03,58,13.20
2010,07,24,03,59,13.20
2010,07,24,04,00,13.10
2010,07,24,04,01,13.10
2010,07,24,04,02,13.10
2010,07,24,04,03,13.10
2010,07,24,04,04,13.10
2010,07,24,04,05,13.20
2010,07,24,04,06,13.20
2010,07,24,04,07,13.20
2010,07,24,04,08,13.20
2010,07,24,04,09,13.20
2010,07,24,04,10,13.20
2010,07,24,04,11,13.20
2010,07,24,04,12,13.20
2010,07,24,04,13,13.20
2010,07,24,04,14,13.20
2010,07,24,04,15,13.30
2010,07,24,04,16,13.30
2010,07,24,04,17,13.30
2010,07,24,04,18,13.30
2010,07,24,04,19,13.30
2010,07,24,04,20,13.30
2010,07,24,04,21,13.30
2010,07,24,04,22,13.30
2010,07,24,04,23,13.30
2010,07,24,04,24,13.30
2010,07,24,04,25,13.30
2010,07,24,04,26,13.30
2010,07,24,04,27,13.30
2010,07,24,04,28,13.30
2010,07,24,04,29,13.30
2010,07,24,04,30,13.30
2010,07,24,04,31,13.30
2010,07,24,04,32,13.30
2010,07,24,04,33,13.40
2010,07,24,04,34,13.40
2010,07,24,04,35,13.40
2010,07,24,04,36,13.40
2010,07,24,04,37,13.40
2010,07,24,04,38,13.40
2010,07,24,04,39,13.40
2010,07,24,04,40,13.30
2010,07,24,04,41,13.30
2010,07,24,04,42,13.30
2010,07,24,04,43,13.30
2010,07,24,04,44,13.30
2010,07,24,04,45,13.30
2010,07,24,04,46,13.30
2010,07,24,04,47,13.30
2010,07,24,04,48,13.30
2010,07,24,04,49,13.30
2010,07,24,04,50,13.30
2010,07,24,04,51,13.30
2010,07,24,04,52,13.30
2010,07,24,04,53,13.30
2010,07,24,04,54,13.30
2010,07,24,04,55,13.30
2010,07,24,04,56,13.40
2010,07,24,04,57,13.40
2010,07,24,04,58,13.40
2010,07,24,04,59,13.40
2010,07,24,05,00,13.40
2010,07,24,05,01,13.50
2010,07,24,05,02,13.50
2010,07,24,05,03,13.50
2010,07,24,05,04,13.50
2010,07,24,05,05,13.50
2010,07,24,05,06,13.50
2010,07,24,05,07,13.50
2010,07,24,05,08,13.50
2010,07,24,05,09,13.50
2010,07,24,05,10,13.50
2010,07,24,05,11,13.60
2010,07,24,05,12,13.60
2010,07,24,05,13,13.60
2010,07,24,05,14,13.70
2010,07,24,05,15,13.70
2010,07,24,05,16,13.70
2010,07,24,05,17,13.70
2010,07,24,05,18,13.70
2010,07,24,05,19,13.70
2010,07,24,05,20,13.70
2010,07,24,05,21,13.70
2010,07,24,05,22,13.70
2010,07,24,05,23,13.70
2010,07,24,05,24,13.70
2010,07,24,05,25,13.70
2010,07,24,05,26,13.70
2010,07,24,05,27,13.70
2010,07,24,05,28,13.70
2010,07,24,05,29,13.70
2010,07,24,05,30,13.70
2010,07,24,05,31,13.70
2010,07,24,05,32,13.70
2010,07,24,05,33,13.70
2010,07,24,05,34,13.70
2010,07,24,05,35,13.70
2010,07,24,05,36,13.70
2010,07,24,05,37,13.80
2010,07,24,05,38,13.80
2010,07,24,05,39,13.80
2010,07,24,05,40,13.90
2010,07,24,05,41,13.90
2010,07,24,05,42,13.90
2010,07,24,05,43,13.90
2010,07,24,05,44,13.90
2010,07,24,05,45,13.90
2010,07,24,05,46,14.00
2010,07,24,05,47,14.00
2010,07,24,05,48,14.00
2010,07,24,05,49,14.00
2010,07,24,05,50,14.00
2010,07,24,05,51,14.00
2010,07,24,05,52,14.00
2010,07,24,05,53,14.00
2010,07,24,05,54,14.00
2010,07,24,05,55,14.00
2010,07,24,05,56,14.00
2010,07,24,05,57,14.00
2010,07,24,05,58,14.00
2010,07,24,05,59,14.00
2010,07,24,06,00,14.00
2010,07,24,06,01,14.00
2010,07,24,06,02,14.00
2010,07,24,06,03,14.00
2010,07,24,06,04,14.00
2010,07,24,06,05,14.00
2010,07,24,06,06,14.00
2010,07,24,06,07,14.00
2010,07,24,06,08,14.00
2010,07,24,06,09,14.00
2010,07,24,06,10,14.00
2010,07,24,06,11,14.00
2010,07,24,06,12,14.00
2010,07,24,06,13,14.00
2010,07,24,06,14,14.00
2010,07,24,06,15,14.00
2010,07,24,06,16,14.00
2010,07,24,06,17,14.00
2010,07,24,06,18,14.00
2010,07,24,06,19,14.00
2010,07,24,06,20,14.00
2010,07,24,06,21,14.00
2010,07,24,06,22,14.00
2010,07,24,06,23,14.00
2010,07,24,06,24,14.00
2010,07,24,06,25,14.00
2010,07,24,06,26,14.10
2010,07,24,06,27,14.10
2010,07,24,06,28,14.10
2010,07,24,06,29,14.10
2010,07,24,06,30,14.10
2010,07,24,06,31,14.20
2010,07,24,06,32,14.20
2010,07,24,06,33,14.20
2010,07,24,06,34,14.20
2010,07,24,06,35,14.20
2010,07,24,06,36,14.20
2010,07,24,06,37,14.20
2010,07,24,06,38,14.20
2010,07,24,06,39,14.30
2010,07,24,06,40,14.30
2010,07,24,06,41,14.30
2010,07,24,06,42,14.40
2010,07,24,06,43,14.40
2010,07,24,06,44,14.50
2010,07,24,06,45,14.50
2010,07,24,06,46,14.50
2010,07,24,06,47,14.50
2010,07,24,06,48,14.50
2010,07,24,06,49,14.50
2010,07,24,06,50,14.40
2010,07,24,06,51,14.30
2010,07,24,06,52,14.20
2010,07,24,06,53,14.20
2010,07,24,06,54,14.20
2010,07,24,06,55,14.10
2010,07,24,06,56,14.10
2010,07,24,06,57,14.10
2010,07,24,06,58,14.20
2010,07,24,06,59,14.20
2010,07,24,07,00,14.20
2010,07,24,07,01,14.20
2010,07,24,07,02,14.20
2010,07,24,07,03,14.20
2010,07,24,07,04,14.20
2010,07,24,07,05,14.20
2010,07,24,07,06,14.20
2010,07,24,07,07,14.20
2010,07,24,07,08,14.20
2010,07,24,07,09,14.20
2010,07,24,07,10,14.20
2010,07,24,07,11,14.20
2010,07,24,07,12,14.20
2010,07,24,07,13,14.20
2010,07,24,07,14,14.20
2010,07,24,07,15,14.20
2010,07,24,07,16,14.20
2010,07,24,07,17,14.20
2010,07,24,07,18,14.30
2010,07,24,07,19,14.40
2010,07,24,07,20,14.40
2010,07,24,07,21,14.50
2010,07,24,07,22,14.60
2010,07,24,07,23,14.60
2010,07,24,07,24,14.70
2010,07,24,07,25,14.80
2010,07,24,07,26,14.90
2010,07,24,07,27,15.00
2010,07,24,07,28,15.20
2010,07,24,07,29,15.30
2010,07,24,07,30,15.40
2010,07,24,07,31,15.50
2010,07,24,07,32,15.70
2010,07,24,07,33,15.80
2010,07,24,07,34,15.90
2010,07,24,07,35,16.10
2010,07,24,07,36,16.20
2010,07,24,07,37,16.30
2010,07,24,07,38,16.40
2010,07,24,07,39,16.60
2010,07,24,07,40,16.70
2010,07,24,07,41,16.80
2010,07,24,07,42,16.90
2010,07,24,07,43,17.00
2010,07,24,07,44,17.10
2010,07,24,07,45,17.20
2010,07,24,07,46,17.30
2010,07,24,07,47,17.30
2010,07,24,07,48,17.40
2010,07,24,07,49,17.50
2010,07,24,07,50,17.60
2010,07,24,07,51,17.70
2010,07,24,07,52,17.70
2010,07,24,07,53,17.80
2010,07,24,07,54,17.80
2010,07,24,07,55,17.90
2010,07,24,07,56,17.90
2010,07,24,07,57,18.00
2010,07,24,07,58,18.10
2010,07,24,07,59,18.10
2010,07,24,08,00,18.20
2010,07,24,08,01,18.20
2010,07,24,08,02,18.20
2010,07,24,08,03,18.20
2010,07,24,08,04,18.30
2010,07,24,08,05,18.30
2010,07,24,08,06,18.40
2010,07,24,08,07,18.40
2010,07,24,08,08,18.50
2010,07,24,08,09,18.60
2010,07,24,08,10,18.60
2010,07,24,08,11,18.70
2010,07,24,08,12,18.70
2010,07,24,08,13,18.80
2010,07,24,08,14,18.80
2010,07,24,08,15,18.80
2010,07,24,08,16,18.90
2010,07,24,08,17,18.90
2010,07,24,08,18,18.90
2010,07,24,08,19,18.90
2010,07,24,08,20,18.90
2010,07,24,08,21,18.90
2010,07,24,08,22,18.90
2010,07,24,08,23,18.90
2010,07,24,08,24,18.90
2010,07,24,08,25,18.90
2010,07,24,08,26,19.00
2010,07,24,08,27,19.10
2010,07,24,08,28,19.10
2010,07,24,08,29,19.10
2010,07,24,08,30,19.10
2010,07,24,08,31,19.10
2010,07,24,08,32,19.20
2010,07,24,08,33,19.20
2010,07,24,08,34,19.30
2010,07,24,08,35,19.30
2010,07,24,08,36,19.40
2010,07,24,08,37,19.50
2010,07,24,08,38,19.50
2010,07,24,08,39,19.50
2010,07,24,08,40,19.60
2010,07,24,08,41,19.60
2010,07,24,08,42,19.60
2010,07,24,08,43,19.60
2010,07,24,08,44,19.70
2010,07,24,08,45,19.70
2010,07,24,08,46,19.70
2010,07,24,08,47,19.70
2010,07,24,08,48,19.70
2010,07,24,08,49,19.70
2010,07,24,08,50,19.80
2010,07,24,08,51,19.80
2010,07,24,08,52,19.80
2010,07,24,08,53,19.90
2010,07,24,08,54,19.90
2010,07,24,08,55,19.90
2010,07,24,08,56,19.90
2010,07,24,08,57,19.90
2010,07,24,08,58,20.00
2010,07,24,08,59,20.10
2010,07,24,09,00,20.10
2010,07,24,09,01,20.10
2010,07,24,09,02,20.20
2010,07,24,09,03,20.20
2010,07,24,09,04,20.20
2010,07,24,09,05,20.20
2010,07,24,09,06,20.30
2010,07,24,09,07,20.40
2010,07,24,09,08,20.50
2010,07,24,09,09,20.50
2010,07,24,09,10,20.50
2010,07,24,09,11,20.60
2010,07,24,09,12,20.60
2010,07,24,09,13,20.60
2010,07,24,09,14,20.70
2010,07,24,09,15,20.60
2010,07,24,09,16,20.60
2010,07,24,09,17,20.60
2010,07,24,09,18,20.60
2010,07,24,09,19,20.50
2010,07,24,09,20,20.40
2010,07,24,09,21,20.40
2010,07,24,09,22,20.30
2010,07,24,09,23,20.30
2010,07,24,09,24,20.40
2010,07,24,09,25,20.40
2010,07,24,09,26,20.30
2010,07,24,09,27,20.40
2010,07,24,09,28,20.40
2010,07,24,09,29,20.40
2010,07,24,09,30,20.30
2010,07,24,09,31,20.40
2010,07,24,09,32,20.40
2010,07,24,09,33,20.40
2010,07,24,09,34,20.40
2010,07,24,09,35,20.40
2010,07,24,09,36,20.50
2010,07,24,09,37,20.50
2010,07,24,09,38,20.50
2010,07,24,09,39,20.60
2010,07,24,09,40,20.60
2010,07,24,09,41,20.60
2010,07,24,09,42,20.60
2010,07,24,09,43,20.60
2010,07,24,09,44,20.60
2010,07,24,09,45,20.60
2010,07,24,09,46,20.60
2010,07,24,09,47,20.60
2010,07,24,09,48,20.60
2010,07,24,09,49,20.60
2010,07,24,09,50,20.50
2010,07,24,09,51,20.50
2010,07,24,09,52,20.60
2010,07,24,09,53,20.60
2010,07,24,09,54,20.70
2010,07,24,09,55,20.70
2010,07,24,09,56,20.50
2010,07,24,09,57,20.50
2010,07,24,09,58,20.50
2010,07,24,09,59,20.50
2010,07,24,10,00,20.40
2010,07,24,10,01,20.40
2010,07,24,10,02,20.40
2010,07,24,10,03,20.40
2010,07,24,10,04,20.40
2010,07,24,10,05,20.40
2010,07,24,10,06,20.40
2010,07,24,10,07,20.50
2010,07,24,10,08,20.50
2010,07,24,10,09,20.50
2010,07,24,10,10,20.60
2010,07,24,10,11,20.60
2010,07,24,10,12,20.60
2010,07,24,10,13,20.50
2010,07,24,10,14,20.50
2010,07,24,10,15,20.60
2010,07,24,10,16,20.60
2010,07,24,10,17,20.70
2010,07,24,10,18,20.80
2010,07,24,10,19,20.80
2010,07,24,10,20,20.90
2010,07,24,10,21,21.00
2010,07,24,10,22,21.00
2010,07,24,10,23,21.10
2010,07,24,10,24,21.10
2010,07,24,10,25,21.20
2010,07,24,10,26,21.30
2010,07,24,10,27,21.30
2010,07,24,10,28,21.30
2010,07,24,10,29,21.30
2010,07,24,10,30,21.40
2010,07,24,10,31,21.50
2010,07,24,10,32,21.60
2010,07,24,10,33,21.40
2010,07,24,10,34,21.30
2010,07,24,10,35,21.30
2010,07,24,10,36,21.40
2010,07,24,10,37,21.40
2010,07,24,10,38,21.40
2010,07,24,10,39,21.30
2010,07,24,10,40,21.30
2010,07,24,10,41,21.30
2010,07,24,10,42,21.30
2010,07,24,10,43,21.30
2010,07,24,10,44,21.40
2010,07,24,10,45,21.40
2010,07,24,10,46,21.60
2010,07,24,10,47,21.60
2010,07,24,10,48,21.60
2010,07,24,10,49,21.70
2010,07,24,10,50,21.70
2010,07,24,10,51,21.70
2010,07,24,10,52,21.80
2010,07,24,10,53,21.80
2010,07,24,10,54,21.80
2010,07,24,10,55,21.80
2010,07,24,10,56,21.80
2010,07,24,10,57,21.80
2010,07,24,10,58,21.80
2010,07,24,10,59,21.70
2010,07,24,11,00,21.70
2010,07,24,11,01,21.70
2010,07,24,11,02,21.70
2010,07,24,11,03,21.70
2010,07,24,11,04,21.70
2010,07,24,11,05,21.70
2010,07,24,11,06,21.80
2010,07,24,11,07,21.90
2010,07,24,11,08,21.90
2010,07,24,11,09,21.90
2010,07,24,11,10,21.90
2010,07,24,11,11,22.00
2010,07,24,11,12,22.00
2010,07,24,11,13,22.10
2010,07,24,11,14,22.20
2010,07,24,11,15,22.20
2010,07,24,11,16,22.20
2010,07,24,11,17,22.20
2010,07,24,11,18,22.20
2010,07,24,11,19,22.20
2010,07,24,11,20,22.20
2010,07,24,11,21,22.20
2010,07,24,11,22,22.20
2010,07,24,11,23,22.10
2010,07,24,11,24,22.20
2010,07,24,11,25,22.20
2010,07,24,11,26,22.10
2010,07,24,11,27,22.10
2010,07,24,11,28,22.00
2010,07,24,11,29,22.00
2010,07,24,11,30,22.00
2010,07,24,11,31,22.00
2010,07,24,11,32,22.00
2010,07,24,11,33,21.90
2010,07,24,11,34,21.90
2010,07,24,11,35,21.80
2010,07,24,11,36,21.80
2010,07,24,11,37,21.70
2010,07,24,11,38,21.60
2010,07,24,11,39,21.70
2010,07,24,11,40,21.70
2010,07,24,11,41,21.70
2010,07,24,11,42,21.70
2010,07,24,11,43,21.80
2010,07,24,11,44,21.80
2010,07,24,11,45,21.90
2010,07,24,11,46,22.00
2010,07,24,11,47,22.00
2010,07,24,11,48,22.10
2010,07,24,11,49,22.10
2010,07,24,11,50,22.20
2010,07,24,11,51,22.20
2010,07,24,11,52,22.20
2010,07,24,11,53,22.20
2010,07,24,11,54,22.20
2010,07,24,11,55,22.20
2010,07,24,11,56,22.10
2010,07,24,11,57,22.10
2010,07,24,11,58,22.00
2010,07,24,11,59,22.00
2010,07,24,12,00,22.10
2010,07,24,12,01,22.00
2010,07,24,12,02,22.00
2010,07,24,12,03,21.90
2010,07,24,12,04,21.90
2010,07,24,12,05,21.90
2010,07,24,12,06,21.90
2010,07,24,12,07,21.90
2010,07,24,12,08,22.00
2010,07,24,12,09,21.90
2010,07,24,12,10,22.00
2010,07,24,12,11,22.00
2010,07,24,12,12,22.10
2010,07,24,12,13,22.10
2010,07,24,12,14,22.10
2010,07,24,12,15,22.10
2010,07,24,12,16,22.10
2010,07,24,12,17,22.10
2010,07,24,12,18,22.10
2010,07,24,12,19,22.10
2010,07,24,12,20,22.10
2010,07,24,12,21,22.10
2010,07,24,12,22,22.10
2010,07,24,12,23,22.20
2010,07,24,12,24,22.20
2010,07,24,12,25,22.30
2010,07,24,12,26,22.40
2010,07,24,12,27,22.40
2010,07,24,12,28,22.40
2010,07,24,12,29,22.50
2010,07,24,12,30,22.50
2010,07,24,12,31,22.40
2010,07,24,12,32,22.50
2010,07,24,12,33,22.50
2010,07,24,12,34,22.50
2010,07,24,12,35,22.60
2010,07,24,12,36,22.60
2010,07,24,12,37,22.70
2010,07,24,12,38,22.60
2010,07,24,12,39,22.70
2010,07,24,12,40,22.70
2010,07,24,12,41,22.70
2010,07,24,12,42,22.70
2010,07,24,12,43,22.80
2010,07,24,12,44,22.90
2010,07,24,12,45,23.00
2010,07,24,12,46,23.20
2010,07,24,12,47,23.20
2010,07,24,12,48,23.20
2010,07,24,12,49,23.20
2010,07,24,12,50,23.30
2010,07,24,12,51,23.30
2010,07,24,12,52,23.30
2010,07,24,12,53,23.30
2010,07,24,12,54,23.30
2010,07,24,12,55,23.30
2010,07,24,12,56,23.30
2010,07,24,12,57,23.30
2010,07,24,12,58,23.40
2010,07,24,12,59,23.50
2010,07,24,13,00,23.60
2010,07,24,13,01,23.40
2010,07,24,13,02,23.30
2010,07,24,13,03,23.30
2010,07,24,13,04,23.20
2010,07,24,13,05,23.20
2010,07,24,13,06,23.20
2010,07,24,13,07,23.20
2010,07,24,13,08,23.30
2010,07,24,13,09,23.20
2010,07,24,13,10,23.20
2010,07,24,13,11,23.20
2010,07,24,13,12,23.20
2010,07,24,13,13,23.20
2010,07,24,13,14,23.10
2010,07,24,13,15,23.10
2010,07,24,13,16,23.00
2010,07,24,13,17,22.90
2010,07,24,13,18,23.00
2010,07,24,13,19,23.10
2010,07,24,13,20,23.20
2010,07,24,13,21,23.20
2010,07,24,13,22,23.30
2010,07,24,13,23,23.30
2010,07,24,13,24,23.40
2010,07,24,13,25,23.50
2010,07,24,13,26,23.60
2010,07,24,13,27,23.70
2010,07,24,13,28,23.70
2010,07,24,13,29,23.80
2010,07,24,13,30,23.80
2010,07,24,13,31,23.80
2010,07,24,13,32,23.90
2010,07,24,13,33,23.90
2010,07,24,13,34,23.90
2010,07,24,13,35,23.90
2010,07,24,13,36,23.90
2010,07,24,13,37,23.90
2010,07,24,13,38,23.90
2010,07,24,13,39,23.90
2010,07,24,13,40,23.90
2010,07,24,13,41,23.90
2010,07,24,13,42,23.90
2010,07,24,13,43,23.90
2010,07,24,13,44,23.90
2010,07,24,13,45,23.90
2010,07,24,13,46,23.90
2010,07,24,13,47,23.80
2010,07,24,13,48,23.80
2010,07,24,13,49,23.90
2010,07,24,13,50,23.90
2010,07,24,13,51,24.00
2010,07,24,13,52,24.10
2010,07,24,13,53,24.10
2010,07,24,13,54,24.10
2010,07,24,13,55,24.10
2010,07,24,13,56,24.10
2010,07,24,13,57,24.10
2010,07,24,13,58,24.20
2010,07,24,13,59,24.20
2010,07,24,14,00,24.20
2010,07,24,14,01,24.30
2010,07,24,14,02,24.40
2010,07,24,14,03,24.50
2010,07,24,14,04,24.60
2010,07,24,14,05,24.60
2010,07,24,14,06,24.70
2010,07,24,14,07,24.70
2010,07,24,14,08,24.80
2010,07,24,14,09,24.80
2010,07,24,14,10,24.80
2010,07,24,14,11,24.80
2010,07,24,14,12,24.80
2010,07,24,14,13,24.80
2010,07,24,14,14,24.80
2010,07,24,14,15,24.70
2010,07,24,14,16,24.60
2010,07,24,14,17,24.50
2010,07,24,14,18,24.50
2010,07,24,14,19,24.50
2010,07,24,14,20,24.50
2010,07,24,14,21,24.50
2010,07,24,14,22,24.50
2010,07,24,14,23,24.50
2010,07,24,14,24,24.50
2010,07,24,14,25,24.50
2010,07,24,14,26,24.50
2010,07,24,14,27,24.50
2010,07,24,14,28,24.50
2010,07,24,14,29,24.50
2010,07,24,14,30,24.50
2010,07,24,14,31,24.50
2010,07,24,14,32,24.60
2010,07,24,14,33,24.60
2010,07,24,14,34,24.70
2010,07,24,14,35,24.70
2010,07,24,14,36,24.70
2010,07,24,14,37,24.80
2010,07,24,14,38,24.90
2010,07,24,14,39,25.00
2010,07,24,14,40,25.10
2010,07,24,14,41,25.10
2010,07,24,14,42,25.10
2010,07,24,14,43,25.00
2010,07,24,14,44,24.90
2010,07,24,14,45,24.90
2010,07,24,14,46,25.00
2010,07,24,14,47,25.10
2010,07,24,14,48,25.20
2010,07,24,14,49,25.30
2010,07,24,14,50,25.40
2010,07,24,14,51,25.50
2010,07,24,14,52,25.60
2010,07,24,14,53,25.60
2010,07,24,14,54,25.60
2010,07,24,14,55,25.60
2010,07,24,14,56,25.60
2010,07,24,14,57,25.50
2010,07,24,14,58,25.60
2010,07,24,14,59,25.60
2010,07,24,15,00,25.60
2010,07,24,15,01,25.60
2010,07,24,15,02,25.60
2010,07,24,15,03,25.60
2010,07,24,15,04,25.60
2010,07,24,15,05,25.60
2010,07,24,15,06,25.50
2010,07,24,15,07,25.50
2010,07,24,15,08,25.50
2010,07,24,15,09,25.50
2010,07,24,15,10,25.50
2010,07,24,15,11,25.50
2010,07,24,15,12,25.60
2010,07,24,15,13,25.60
2010,07,24,15,14,25.60
2010,07,24,15,15,25.50
2010,07,24,15,16,25.40
2010,07,24,15,17,25.40
2010,07,24,15,18,25.50
2010,07,24,15,19,25.50
2010,07,24,15,20,25.60
2010,07,24,15,21,25.70
2010,07,24,15,22,25.80
2010,07,24,15,23,25.90
2010,07,24,15,24,25.90
2010,07,24,15,25,26.00
2010,07,24,15,26,26.10
2010,07,24,15,27,26.10
2010,07,24,15,28,26.20
2010,07,24,15,29,26.20
2010,07,24,15,30,26.20
2010,07,24,15,31,26.20
2010,07,24,15,32,26.20
2010,07,24,15,33,26.20
2010,07,24,15,34,26.30
2010,07,24,15,35,26.30
2010,07,24,15,36,26.30
2010,07,24,15,37,26.30
2010,07,24,15,38,26.30
2010,07,24,15,39,26.40
2010,07,24,15,40,26.40
2010,07,24,15,41,26.40
2010,07,24,15,42,26.50
2010,07,24,15,43,26.60
2010,07,24,15,44,26.60
2010,07,24,15,45,26.60
2010,07,24,15,46,26.60
2010,07,24,15,47,26.40
2010,07,24,15,48,26.40
2010,07,24,15,49,26.40
2010,07,24,15,50,26.40
2010,07,24,15,51,26.40
2010,07,24,15,52,26.40
2010,07,24,15,53,26.40
2010,07,24,15,54,26.40
2010,07,24,15,55,26.40
2010,07,24,15,56,26.30
2010,07,24,15,57,26.20
2010,07,24,15,58,26.20
2010,07,24,15,59,26.20
2010,07,24,16,00,26.20
2010,07,24,16,01,26.10
2010,07,24,16,02,26.10
2010,07,24,16,03,26.20
2010,07,24,16,04,26.20
2010,07,24,16,05,26.20
2010,07,24,16,06,26.20
2010,07,24,16,07,26.20
2010,07,24,16,08,26.30
2010,07,24,16,09,26.30
2010,07,24,16,10,26.30
2010,07,24,16,11,26.40
2010,07,24,16,12,26.40
2010,07,24,16,13,26.40
2010,07,24,16,14,26.40
2010,07,24,16,15,26.50
2010,07,24,16,16,26.60
2010,07,24,16,17,26.60
2010,07,24,16,18,26.60
2010,07,24,16,19,26.60
2010,07,24,16,20,26.60
2010,07,24,16,21,26.60
2010,07,24,16,22,26.60
2010,07,24,16,23,26.60
2010,07,24,16,24,26.40
2010,07,24,16,25,26.40
2010,07,24,16,26,26.40
2010,07,24,16,27,26.40
2010,07,24,16,28,26.40
2010,07,24,16,29,26.40
2010,07,24,16,30,26.40
2010,07,24,16,31,26.60
2010,07,24,16,32,26.60
2010,07,24,16,33,26.60
2010,07,24,16,34,26.60
2010,07,24,16,35,26.60
2010,07,24,16,36,26.60
2010,07,24,16,37,26.60
2010,07,24,16,38,26.60
2010,07,24,16,39,26.60
2010,07,24,16,40,26.60
2010,07,24,16,41,26.50
2010,07,24,16,42,26.40
2010,07,24,16,43,26.40
2010,07,24,16,44,26.40
2010,07,24,16,45,26.30
2010,07,24,16,46,26.20
2010,07,24,16,47,26.00
2010,07,24,16,48,26.00
2010,07,24,16,49,26.00
2010,07,24,16,50,26.10
2010,07,24,16,51,26.10
2010,07,24,16,52,26.20
2010,07,24,16,53,26.30
2010,07,24,16,54,26.30
2010,07,24,16,55,26.40
2010,07,24,16,56,26.40
2010,07,24,16,57,26.50
2010,07,24,16,58,26.60
2010,07,24,16,59,26.50
2010,07,24,17,00,26.40
2010,07,24,17,01,26.40
2010,07,24,17,02,26.40
2010,07,24,17,03,26.40
2010,07,24,17,04,26.40
2010,07,24,17,05,26.30
2010,07,24,17,06,26.30
2010,07,24,17,07,26.40
2010,07,24,17,08,26.40
2010,07,24,17,09,26.40
2010,07,24,17,10,26.30
2010,07,24,17,11,26.30
2010,07,24,17,12,26.30
2010,07,24,17,13,26.30
2010,07,24,17,14,26.30
2010,07,24,17,15,26.20
2010,07,24,17,16,26.30
2010,07,24,17,17,26.30
2010,07,24,17,18,26.30
2010,07,24,17,19,26.30